FW9881 Weather Reports


time (UTC)temp
C
wind
direction
speed
KPH
gust
KPH
rain 1hr
cm
rain 24hr
cm
rain mn
cm
humidity
%
barometer
mb
20260903001036 17 180 0.0 3.2 0.00 0.00 0.00 86 1022.6
20260902235035 17 157 0.0 0.0 0.00 0.00 0.00 86 1022.8
20260902233037 17 157 0.0 0.0 0.00 0.00 0.00 85 1023.1
20260902232034 17 157 0.0 0.0 0.00 0.00 0.00 84 1023.3
20260902231051 17 157 0.0 0.0 0.00 0.03 0.00 83 1023.6
20260902230134 18 157 0.0 0.0 0.00 0.03 0.00 84 1023.8
20260902225150 18 157 0.0 0.0 0.00 0.03 0.00 84 1023.8
20260902224234 18 157 0.0 0.0 0.00 0.03 0.00 83 1023.9
20260902223235 18 157 0.0 0.0 0.00 0.03 0.00 82 1023.8
20260902222235 18 157 0.0 1.6 0.00 0.03 0.00 81 1023.8
20260902221332 18 157 0.0 1.6 0.00 0.03 0.00 80 1023.9
20260902220336 18 157 1.6 3.2 0.00 0.03 0.00 79 1024.0
20260902215335 18 157 0.0 4.8 0.00 0.03 0.00 80 1023.8
20260902214335 18 143 3.2 8.0 0.00 0.03 0.00 80 1023.9
20260902213334 18 135 3.2 4.8 0.00 0.03 0.00 80 1023.9
20260902213251 18 135 4.8 9.7 0.00 0.03 0.00 80 1023.9
20260902212235 19 135 0.0 1.6 0.00 0.03 0.00 79 1023.7
20260902211235 19 146 3.2 6.4 0.00 0.05 0.00 79 1023.7
20260902205233 19 135 0.0 0.0 0.00 0.05 0.00 81 1023.7
20260902204233 19 157 0.0 3.2 0.00 0.05 0.00 80 1023.5
20260902203236 20 157 0.0 8.0 0.00 0.05 0.00 80 1023.8
20260902201233 19 168 1.6 6.4 0.00 0.08 0.00 80 1024.0
20260902201135 19 135 0.0 0.0 0.00 0.08 0.00 80 1023.9
20260902200136 20 157 0.0 4.8 0.00 0.10 0.00 82 1023.8
20260902195233 19 135 1.6 3.2 0.00 0.10 0.00 82 1024.1
20260902194135 19 112 0.0 0.0 0.00 0.15 0.00 82 1024.0
20260902193134 20 130 6.4 11.3 0.00 0.15 0.00 83 1024.1
20260902192133 19 157 0.0 1.6 0.00 0.20 0.00 83 1024.3
20260902191133 19 144 4.8 6.4 0.00 0.23 0.00 84 1024.3
20260902190151 19 157 1.6 4.8 0.00 0.23 0.00 84 1024.6
20260902185233 19 180 0.0 0.0 0.00 0.23 0.00 82 1024.8
20260902184233 19 135 0.0 0.0 0.00 0.23 0.00 82 1024.6
20260902184133 19 135 0.0 1.6 0.00 0.23 0.00 83 1024.6
20260902183232 19 157 0.0 0.0 0.00 0.25 0.00 82 1024.6
20260902182234 19 157 0.0 3.2 0.00 0.25 0.00 83 1024.5
20260902181236 19 157 0.0 1.6 0.00 0.25 0.00 83 1024.5
20260902180333 18 157 3.2 8.0 0.00 0.25 0.00 83 1024.4
20260902174333 18 157 1.6 3.2 0.00 0.28 0.00 84 1024.8
20260902172349 18 157 1.6 4.8 0.00 0.28 0.00 85 1025.0
20260902171436 18 157 0.0 1.6 0.00 0.30 0.00 85 1024.9
20260902170533 18 157 0.0 1.6 0.00 0.30 0.00 84 1024.8
20260902170450 18 157 4.8 6.4 0.00 0.30 0.00 84 1024.8
20260902165535 18 157 1.6 3.2 0.00 0.30 0.00 84 1024.9
20260902164535 18 180 0.0 1.6 0.00 0.30 0.00 83 1025.1
20260902164433 18 180 3.2 4.8 0.00 0.30 0.00 84 1025.1
20260902163433 18 157 0.0 0.0 0.00 0.30 0.00 84 1025.0
20260902162335 18 180 0.0 3.2 0.00 0.33 0.00 85 1025.0
20260902161434 18 157 0.0 0.0 0.00 0.33 0.00 87 1025.2
20260902160533 18 157 1.6 4.8 0.00 0.33 0.00 86 1025.5
20260902155535 18 157 0.0 1.6 0.00 0.36 0.00 87 1025.8
20260902154451 18 157 1.6 4.8 0.00 0.36 0.00 87 1025.6
20260902153534 18 157 0.0 0.0 0.00 0.36 0.00 88 1025.8
20260902152535 18 157 1.6 8.0 0.00 0.36 0.00 88 1025.9
20260902151633 18 180 0.0 0.0 0.00 0.36 0.00 89 1026.1
20260902151537 18 180 0.0 0.0 0.00 0.36 0.00 88 1026.0
20260902150534 17 135 0.0 0.0 0.00 0.36 0.00 89 1025.9
20260902145533 17 180 0.0 0.0 0.00 0.36 0.00 89 1025.8
20260902144536 17 157 4.8 8.0 0.00 0.36 0.00 90 1025.9
20260902143536 18 135 0.0 1.6 0.00 0.36 0.00 88 1026.0
20260902142534 17 157 0.0 0.0 0.00 0.36 0.00 88 1025.9
20260902141536 17 157 1.6 3.2 0.00 0.36 0.00 87 1025.8
20260902135534 17 174 1.6 4.8 0.00 0.36 0.00 86 1025.6
20260902134536 16 157 0.0 0.0 0.00 0.36 0.00 85 1025.6
20260902132649 16 166 3.2 6.4 0.00 0.36 0.00 84 1025.2
20260902131633 16 161 6.4 12.9 0.00 0.36 0.00 83 1025.3
20260902130633 16 157 1.6 4.8 0.00 0.36 0.00 84 1025.5
20260902120734 15 157 0.0 0.0 0.00 0.64 0.00 84 1025.7
20260902115734 15 157 0.0 0.0 0.00 0.79 0.00 85 1025.7
20260902114734 15 157 0.0 0.0 0.00 0.86 0.00 85 1025.7
20260902113832 15 157 0.0 0.0 0.00 0.97 0.00 85 1025.7
20260902112835 15 157 0.0 0.0 0.00 1.12 0.00 85 1025.9
20260902105833 15 157 0.0 0.0 0.00 1.17 0.00 85 1025.6
20260902105749 15 157 0.0 0.0 0.00 1.17 0.00 85 1025.5
20260902104832 15 157 0.0 0.0 0.00 1.17 0.00 84 1025.4
20260902102835 15 157 0.0 0.0 0.00 1.17 0.00 85 1025.4
20260902101735 15 157 0.0 0.0 0.00 1.17 0.00 84 1025.1
20260902100733 15 157 0.0 0.0 0.00 1.17 0.00 85 1025.1
20260902095734 15 157 0.0 0.0 0.00 1.17 0.00 85 1025.1
20260902095631 15 157 0.0 0.0 0.00 1.17 0.00 84 1025.0
20260902094633 15 157 0.0 0.0 0.00 1.17 0.00 84 1025.2
20260902093633 15 157 0.0 0.0 0.00 1.17 0.00 85 1025.1
20260902092637 15 157 0.0 0.0 0.00 1.17 0.00 84 1024.9
20260902092535 15 157 0.0 0.0 0.00 1.17 0.00 84 1025.0
20260902085632 15 157 0.0 0.0 0.00 1.17 0.00 85 1024.6
20260902084632 15 157 0.0 0.0 0.00 1.17 0.00 85 1024.8
20260902084535 15 157 0.0 0.0 0.00 1.17 0.00 84 1024.7
20260902083631 15 157 0.0 0.0 0.00 1.17 0.00 84 1024.8
20260902081632 15 157 0.0 0.0 0.00 1.17 0.00 84 1024.7
20260902081535 15 157 0.0 0.0 0.00 1.17 0.00 84 1024.7
20260902080550 15 157 0.0 0.0 0.00 1.17 0.00 83 1024.7
20260902075531 15 157 0.0 0.0 0.00 1.17 0.00 83 1024.7
20260902074534 15 157 0.0 0.0 0.00 1.17 0.00 84 1024.8
20260902073533 15 157 0.0 0.0 0.00 1.17 0.00 84 1024.8
20260902073434 15 157 0.0 0.0 0.00 1.17 0.00 83 1024.8
20260902072434 15 157 0.0 0.0 0.00 1.17 0.00 83 1024.9
20260902070436 15 157 0.0 0.0 0.00 1.17 0.00 84 1025.0
20260902065450 15 157 0.0 0.0 0.00 1.17 0.00 84 1025.0
20260902064536 15 157 0.0 0.0 0.00 1.17 0.00 84 1024.8
20260902064449 15 157 0.0 0.0 0.00 1.17 0.00 83 1024.8
20260902063532 15 157 0.0 0.0 0.00 1.17 0.00 84 1024.7
20260902062533 15 157 0.0 0.0 0.00 1.17 0.00 84 1024.5
20260902062434 15 157 0.0 0.0 0.00 1.17 0.00 84 1024.4
20260902055435 15 157 0.0 0.0 0.00 1.17 0.00 84 1024.8
20260902054434 15 157 0.0 0.0 0.00 1.17 0.00 84 1024.5
20260902053433 15 157 0.0 0.0 0.00 1.17 0.00 84 1024.5
20260902052432 15 157 0.0 0.0 0.00 1.17 0.00 84 1024.5
20260902051432 15 157 0.0 0.0 0.00 1.17 0.00 83 1024.3
20260902050435 15 157 0.0 0.0 0.00 1.17 0.00 84 1024.3
20260902045533 15 157 0.0 0.0 0.00 1.17 0.00 84 1024.1
20260902044532 15 157 0.0 0.0 0.00 1.17 0.00 84 1023.9
20260902043535 15 157 0.0 0.0 0.00 1.17 0.00 83 1023.8
20260902043449 15 157 0.0 0.0 0.00 1.17 0.00 83 1023.9
20260902042435 15 157 0.0 0.0 0.00 1.17 0.00 84 1023.7
20260902041434 15 157 0.0 0.0 0.00 1.17 0.00 84 1023.6
20260902040532 15 157 0.0 0.0 0.00 1.17 0.00 83 1023.5
20260902033636 15 157 0.0 0.0 0.00 1.17 1.17 83 1023.2
20260902033541 15 157 0.0 0.0 0.00 1.17 1.17 84 1023.1
20260902032553 15 157 0.0 0.0 0.00 1.17 1.17 84 1023.1
20260902032439 15 157 0.0 0.0 0.00 1.17 1.17 84 1023.2
20260902031538 15 157 0.0 0.0 0.00 1.17 1.17 83 1023.2
20260902030538 15 157 0.0 0.0 0.00 1.17 1.17 83 1022.9
20260902025539 15 157 0.0 0.0 0.00 1.17 1.17 84 1023.1
20260902024538 15 157 0.0 0.0 0.00 1.17 1.17 84 1023.3
20260902023540 15 157 0.0 0.0 0.00 1.17 1.17 84 1023.3
20260902022636 15 157 0.0 0.0 0.00 1.17 1.17 84 1023.5
20260902021640 15 157 0.0 0.0 0.00 1.17 1.17 84 1023.3
20260902020638 15 157 0.0 0.0 0.00 1.17 1.17 83 1023.2
20260902015639 15 157 0.0 0.0 0.00 1.17 1.17 83 1023.3
20260902013737 15 157 0.0 0.0 0.00 1.17 1.17 83 1023.3
20260902012837 15 157 0.0 0.0 0.00 1.17 1.17 83 1023.4
20260902011838 15 157 0.0 0.0 0.00 1.17 1.17 84 1023.4
20260902011736 15 157 0.0 0.0 0.00 1.17 1.17 84 1023.4
20260902010737 15 157 0.0 0.0 0.00 1.17 1.17 84 1023.3
20260902005737 15 157 0.0 0.0 0.00 1.17 1.17 84 1023.2
20260902004738 15 157 0.0 0.0 0.00 1.17 1.17 84 1023.1
20260902003837 15 157 0.0 0.0 0.00 1.17 1.17 84 1023.1